Location: Consuma
(43.7833°N, 11.5833°E)
Time: 04:19:13
(UTC+00:00)

Cosmos 2263 - Pass Details

Date: 17 February 2020
Orbit: 832 x 865 km, 70.9° (Epoch: 29 March)

Event Time Altitude Azimuth Distance (km) Brightness Sun altitude
Rises 05:00:01 0° 333° (NNW) 3,430 7.1 -13.4°
Reaches altitude 10° 05:02:30 10° 332° (NNW) 2,486 6.3 -12.9°
Maximum altitude 05:08:12 78° 247° (WSW) 866 4.2 -11.9°
Drops below altitude 10° 05:13:49 10° 162° (SSE) 2,447 6.9 -10.9°
Sets 05:16:14 0° 161° (SSE) 3,373 7.7 -10.4°
